Time,TemperatureF,DewpointF,PressureIn,WindDirection,WindDirectionDegrees,WindSpeedMPH,WindSpeedGustMPH,Humidity,HourlyPrecipIn,Conditions,Clouds,dailyrainin,SoftwareType,DateUTC
2013-09-17 00:00:00,51.1,47.7,30.33,East,86,1.0,5.0,88,0.00,,CLR,0.00,VWS V14.01,2013-09-17 05:00:00,
2013-09-17 00:01:00,51.0,47.9,30.33,East,97,1.0,4.0,89,0.00,,CLR,0.00,VWS V14.01,2013-09-17 05:01:00,
2013-09-17 00:07:00,50.8,47.7,30.33,ESE,115,2.0,4.0,89,0.00,,CLR,0.00,VWS V14.01,2013-09-17 05:07:00,
2013-09-17 00:10:00,50.8,47.7,30.33,East,100,0.0,4.0,89,0.00,,CLR,0.00,VWS V14.01,2013-09-17 05:10:00,
2013-09-17 00:12:00,50.8,47.7,30.33,ENE,77,0.0,3.0,89,0.00,,CLR,0.00,VWS V14.01,2013-09-17 05:12:00,
2013-09-17 00:17:00,50.7,47.6,30.33,East,91,0.0,4.0,89,0.00,,CLR,0.00,VWS V14.01,2013-09-17 05:17:00,
2013-09-17 00:20:00,50.7,47.6,30.33,ENE,68,2.0,4.0,89,0.00,,CLR,0.00,VWS V14.01,2013-09-17 05:20:00,
2013-09-17 00:22:00,50.6,47.5,30.33,ESE,105,2.0,5.0,89,0.00,,CLR,0.00,VWS V14.01,2013-09-17 05:22:00,
2013-09-17 00:27:00,50.6,47.8,30.32,East,96,0.0,5.0,90,0.00,,CLR,0.00,VWS V14.01,2013-09-17 05:27:00,
2013-09-17 00:30:00,50.5,47.7,30.32,East,96,0.0,5.0,90,0.00,,CLR,0.00,VWS V14.01,2013-09-17 05:30:00,
2013-09-17 00:32:00,50.5,47.7,30.32,East,99,2.0,3.0,90,0.00,,CLR,0.00,VWS V14.01,2013-09-17 05:32:00,
2013-09-17 00:37:00,50.6,47.8,30.33,ENE,76,0.0,5.0,90,0.00,,CLR,0.00,VWS V14.01,2013-09-17 05:37:00,
2013-09-17 00:40:00,50.6,47.8,30.33,ENE,75,0.0,5.0,90,0.00,,CLR,0.00,VWS V14.01,2013-09-17 05:40:00,
2013-09-17 00:42:00,50.6,47.8,30.33,NE,51,0.0,2.0,90,0.00,,CLR,0.00,VWS V14.01,2013-09-17 05:42:00,
2013-09-17 00:47:00,50.6,47.8,30.33,ENE,77,0.0,3.0,90,0.00,,CLR,0.00,VWS V14.01,2013-09-17 05:47:00,
2013-09-17 00:50:00,50.6,47.8,30.32,ENE,72,1.0,4.0,90,0.00,,CLR,0.00,VWS V14.01,2013-09-17 05:50:00,
2013-09-17 00:52:00,50.6,47.8,30.33,ENE,75,0.0,4.0,90,0.00,,CLR,0.00,VWS V14.01,2013-09-17 05:52:00,
2013-09-17 00:57:00,50.7,47.9,30.32,ESE,104,1.0,4.0,90,0.00,,CLR,0.00,VWS V14.01,2013-09-17 05:57:00,
2013-09-17 01:00:00,50.7,47.9,30.32,ENE,70,2.0,4.0,90,0.00,,CLR,0.00,VWS V14.01,2013-09-17 06:00:00,
2013-09-17 01:02:00,50.7,47.9,30.32,NE,43,1.0,4.0,90,0.00,,CLR,0.00,VWS V14.01,2013-09-17 06:02:00,
2013-09-17 01:07:00,50.7,47.9,30.33,SSE,148,1.0,4.0,90,0.00,,CLR,0.00,VWS V14.01,2013-09-17 06:07:00,
2013-09-17 01:10:00,50.7,47.9,30.33,SSE,148,0.0,4.0,90,0.00,,CLR,0.00,VWS V14.01,2013-09-17 06:10:00,
2013-09-17 01:12:00,50.7,47.9,30.33,East,100,1.0,3.0,90,0.00,,CLR,0.00,VWS V14.01,2013-09-17 06:12:00,
2013-09-17 01:17:00,50.6,47.8,30.32,ENE,78,2.0,3.0,90,0.00,,CLR,0.00,VWS V14.01,2013-09-17 06:17:00,
2013-09-17 01:20:00,50.6,47.8,30.32,East,93,3.0,3.0,90,0.00,,CLR,0.00,VWS V14.01,2013-09-17 06:20:00,
2013-09-17 01:22:00,50.4,47.6,30.32,ESE,106,2.0,5.0,90,0.00,,CLR,0.00,VWS V14.01,2013-09-17 06:22:00,
2013-09-17 01:27:00,50.3,47.5,30.32,ESE,102,1.0,5.0,90,0.00,,CLR,0.00,VWS V14.01,2013-09-17 06:27:00,
2013-09-17 01:30:00,50.3,47.5,30.32,ENE,70,0.0,5.0,90,0.00,,CLR,0.00,VWS V14.01,2013-09-17 06:30:00,
2013-09-17 01:32:00,50.2,47.4,30.32,East,79,1.0,3.0,90,0.00,,CLR,0.00,VWS V14.01,2013-09-17 06:32:00,
2013-09-17 01:37:00,50.1,47.6,30.32,East,89,1.0,4.0,91,0.00,,CLR,0.00,VWS V14.01,2013-09-17 06:37:00,
2013-09-17 01:40:00,50.1,47.6,30.32,ENE,65,1.0,4.0,91,0.00,,CLR,0.00,VWS V14.01,2013-09-17 06:40:00,
2013-09-17 01:43:00,50.0,47.5,30.32,NNE,26,0.0,3.0,91,0.00,,CLR,0.00,VWS V14.01,2013-09-17 06:43:00,
2013-09-17 01:48:00,50.0,47.5,30.32,ESE,103,3.0,4.0,91,0.00,,CLR,0.00,VWS V14.01,2013-09-17 06:48:00,
2013-09-17 01:50:00,50.0,47.5,30.32,SE,132,1.0,4.0,91,0.00,,CLR,0.00,VWS V14.01,2013-09-17 06:50:00,
2013-09-17 01:53:00,49.9,47.4,30.32,East,84,0.0,2.0,91,0.00,,CLR,0.00,VWS V14.01,2013-09-17 06:53:00,
2013-09-17 01:58:00,49.9,47.4,30.32,ENE,75,1.0,2.0,91,0.00,,CLR,0.00,VWS V14.01,2013-09-17 06:58:00,
2013-09-17 02:00:00,49.9,47.4,30.32,East,80,1.0,2.0,91,0.00,,CLR,0.00,VWS V14.01,2013-09-17 07:00:00,
2013-09-17 02:03:00,49.9,47.4,30.33,East,96,0.0,1.0,91,0.00,,CLR,0.00,VWS V14.01,2013-09-17 07:03:00,
2013-09-17 02:08:00,49.8,47.6,30.33,East,86,1.0,4.0,92,0.00,,CLR,0.00,VWS V14.01,2013-09-17 07:08:00,
2013-09-17 02:10:00,49.8,47.6,30.33,East,86,1.0,4.0,92,0.00,,CLR,0.00,VWS V14.01,2013-09-17 07:10:00,
2013-09-17 02:13:00,49.8,47.6,30.32,East,80,0.0,3.0,92,0.00,,CLR,0.00,VWS V14.01,2013-09-17 07:13:00,
2013-09-17 02:18:00,49.7,47.5,30.32,ESE,120,0.0,0.0,92,0.00,,CLR,0.00,VWS V14.01,2013-09-17 07:18:00,
2013-09-17 02:20:00,49.7,47.5,30.32,ESE,120,0.0,3.0,92,0.00,,CLR,0.00,VWS V14.01,2013-09-17 07:20:00,
2013-09-17 02:23:00,49.7,47.5,30.32,East,100,0.0,2.0,92,0.00,,CLR,0.00,VWS V14.01,2013-09-17 07:23:00,
2013-09-17 02:28:00,49.7,47.5,30.32,ESE,120,2.0,3.0,92,0.00,,CLR,0.00,VWS V14.01,2013-09-17 07:28:00,
2013-09-17 02:30:00,49.7,47.5,30.32,ESE,114,2.0,2.0,92,0.00,,CLR,0.00,VWS V14.01,2013-09-17 07:30:00,
2013-09-17 02:33:00,49.7,47.5,30.32,East,101,0.0,3.0,92,0.00,,CLR,0.00,VWS V14.01,2013-09-17 07:33:00,
2013-09-17 02:38:00,49.7,47.5,30.32,SSE,159,0.0,0.0,92,0.00,,CLR,0.00,VWS V14.01,2013-09-17 07:38:00,
2013-09-17 02:40:00,49.7,47.5,30.32,SSE,159,0.0,3.0,92,0.00,,CLR,0.00,VWS V14.01,2013-09-17 07:40:00,
2013-09-17 02:43:00,49.7,47.5,30.32,ESE,108,1.0,4.0,92,0.00,,CLR,0.00,VWS V14.01,2013-09-17 07:43:00,
2013-09-17 02:48:00,49.7,47.5,30.32,East,91,0.0,0.0,92,0.00,,CLR,0.00,VWS V14.01,2013-09-17 07:48:00,
2013-09-17 02:50:00,49.7,47.5,30.32,East,91,0.0,4.0,92,0.00,,CLR,0.00,VWS V14.01,2013-09-17 07:50:00,
2013-09-17 02:53:00,49.6,47.4,30.32,East,90,0.0,1.0,92,0.00,,CLR,0.00,VWS V14.01,2013-09-17 07:53:00,
2013-09-17 02:58:00,49.6,47.7,30.32,East,88,1.0,1.0,93,0.00,,CLR,0.00,VWS V14.01,2013-09-17 07:58:00,
2013-09-17 03:00:00,49.6,47.7,30.32,East,90,0.0,2.0,93,0.00,,CLR,0.00,VWS V14.01,2013-09-17 08:00:00,
2013-09-17 03:03:00,49.6,47.7,30.32,East,86,0.0,1.0,93,0.00,,CLR,0.00,VWS V14.01,2013-09-17 08:03:00,
2013-09-17 03:08:00,49.7,47.8,30.32,SSE,151,0.0,0.0,93,0.00,,CLR,0.00,VWS V14.01,2013-09-17 08:08:00,
2013-09-17 03:10:00,49.6,47.7,30.32,SSE,150,0.0,3.0,93,0.00,,CLR,0.00,VWS V14.01,2013-09-17 08:10:00,
2013-09-17 03:13:00,49.7,47.8,30.32,East,88,0.0,3.0,93,0.00,,CLR,0.00,VWS V14.01,2013-09-17 08:13:00,
2013-09-17 03:18:00,49.7,47.8,30.32,East,84,0.0,0.0,93,0.00,,CLR,0.00,VWS V14.01,2013-09-17 08:18:00,
2013-09-17 03:20:00,49.7,47.8,30.32,East,84,0.0,3.0,93,0.00,,CLR,0.00,VWS V14.01,2013-09-17 08:20:00,
2013-09-17 03:24:00,49.7,47.8,30.32,East,98,0.0,3.0,93,0.00,,CLR,0.00,VWS V14.01,2013-09-17 08:24:00,
2013-09-17 03:29:00,49.7,47.8,30.32,ESE,103,1.0,1.0,93,0.00,,CLR,0.00,VWS V14.01,2013-09-17 08:29:00,
2013-09-17 03:30:00,49.8,47.9,30.32,ESE,103,0.0,3.0,93,0.00,,CLR,0.00,VWS V14.01,2013-09-17 08:30:00,
2013-09-17 03:34:00,49.8,47.9,30.32,East,94,0.0,3.0,93,0.00,,CLR,0.00,VWS V14.01,2013-09-17 08:34:00,
2013-09-17 03:39:00,49.8,47.9,30.31,ENE,69,1.0,1.0,93,0.00,,CLR,0.00,VWS V14.01,2013-09-17 08:39:00,
2013-09-17 03:40:00,49.8,47.9,30.31,ESE,115,0.0,3.0,93,0.00,,CLR,0.00,VWS V14.01,2013-09-17 08:40:00,
2013-09-17 03:44:00,49.9,48.0,30.32,SSE,165,0.0,3.0,93,0.00,,CLR,0.00,VWS V14.01,2013-09-17 08:44:00,
2013-09-17 03:49:00,49.9,48.2,30.32,SE,135,0.0,1.0,94,0.00,,CLR,0.00,VWS V14.01,2013-09-17 08:49:00,
2013-09-17 03:50:00,49.9,48.0,30.32,SSE,150,1.0,3.0,93,0.00,,CLR,0.00,VWS V14.01,2013-09-17 08:50:00,
2013-09-17 03:54:00,49.9,48.0,30.31,East,93,1.0,3.0,93,0.00,,CLR,0.00,VWS V14.01,2013-09-17 08:54:00,
2013-09-17 03:59:00,49.9,48.2,30.31,ENE,78,0.0,1.0,94,0.00,,CLR,0.00,VWS V14.01,2013-09-17 08:59:00,
2013-09-17 04:00:00,49.9,48.0,30.31,ENE,65,0.0,3.0,93,0.00,,CLR,0.00,VWS V14.01,2013-09-17 09:00:00,
2013-09-17 04:04:00,49.8,48.2,30.31,East,90,0.0,3.0,94,0.00,,CLR,0.00,VWS V14.01,2013-09-17 09:04:00,
2013-09-17 04:09:00,49.7,48.0,30.31,East,90,0.0,1.0,94,0.00,,CLR,0.00,VWS V14.01,2013-09-17 09:09:00,
2013-09-17 04:10:00,49.7,48.0,30.31,East,90,0.0,3.0,94,0.00,,CLR,0.00,VWS V14.01,2013-09-17 09:10:00,
2013-09-17 04:14:00,49.7,48.0,30.30,East,79,2.0,2.0,94,0.00,,CLR,0.00,VWS V14.01,2013-09-17 09:14:00,
2013-09-17 04:19:00,49.7,48.0,30.30,ESE,104,0.0,3.0,94,0.00,,CLR,0.00,VWS V14.01,2013-09-17 09:19:00,
2013-09-17 04:20:00,49.7,48.0,30.30,East,79,0.0,4.0,94,0.00,,CLR,0.00,VWS V14.01,2013-09-17 09:20:00,
2013-09-17 04:24:00,49.7,48.0,30.30,ENE,77,2.0,4.0,94,0.00,,CLR,0.00,VWS V14.01,2013-09-17 09:24:00,
2013-09-17 04:29:00,49.7,48.0,30.30,East,82,0.0,1.0,94,0.00,,CLR,0.00,VWS V14.01,2013-09-17 09:29:00,
2013-09-17 04:30:00,49.7,48.0,30.31,ESE,103,0.0,4.0,94,0.00,,CLR,0.00,VWS V14.01,2013-09-17 09:30:00,
2013-09-17 04:34:00,49.7,48.0,30.30,ESE,110,0.0,2.0,94,0.00,,CLR,0.00,VWS V14.01,2013-09-17 09:34:00,
2013-09-17 04:39:00,49.6,48.0,30.30,East,96,0.0,2.0,94,0.00,,CLR,0.00,VWS V14.01,2013-09-17 09:39:00,
2013-09-17 04:40:00,49.7,48.0,30.30,East,86,2.0,2.0,94,0.00,,CLR,0.00,VWS V14.01,2013-09-17 09:40:00,
2013-09-17 04:44:00,49.6,48.0,30.30,East,98,0.0,2.0,94,0.00,,CLR,0.00,VWS V14.01,2013-09-17 09:44:00,
2013-09-17 04:49:00,49.5,47.8,30.30,East,88,0.0,0.0,94,0.00,,CLR,0.00,VWS V14.01,2013-09-17 09:49:00,
2013-09-17 04:50:00,49.6,48.0,30.30,East,94,0.0,2.0,94,0.00,,CLR,0.00,VWS V14.01,2013-09-17 09:50:00,
2013-09-17 04:54:00,49.5,47.8,30.30,East,90,0.0,2.0,94,0.00,,CLR,0.00,VWS V14.01,2013-09-17 09:54:00,
2013-09-17 04:59:00,49.4,47.8,30.30,ESE,103,0.0,0.0,94,0.00,,CLR,0.00,VWS V14.01,2013-09-17 09:59:00,
2013-09-17 05:00:00,49.4,47.8,30.30,ESE,103,0.0,2.0,94,0.00,,CLR,0.00,VWS V14.01,2013-09-17 10:00:00,
2013-09-17 05:05:00,49.3,47.7,30.30,East,86,0.0,1.0,94,0.00,,CLR,0.00,VWS V14.01,2013-09-17 10:05:00,
2013-09-17 05:10:00,49.3,47.7,30.30,East,97,0.0,2.0,94,0.00,,CLR,0.00,VWS V14.01,2013-09-17 10:10:00,
2013-09-17 05:15:00,49.2,47.5,30.30,East,84,2.0,3.0,94,0.00,,CLR,0.00,VWS V14.01,2013-09-17 10:15:00,
2013-09-17 05:20:00,49.2,47.5,30.30,East,80,1.0,2.0,94,0.00,,CLR,0.00,VWS V14.01,2013-09-17 10:20:00,
2013-09-17 05:25:00,49.1,47.7,30.30,East,97,0.0,2.0,95,0.00,,CLR,0.00,VWS V14.01,2013-09-17 10:25:00,
2013-09-17 05:30:00,49.1,47.7,30.30,East,93,1.0,3.0,95,0.00,,CLR,0.00,VWS V14.01,2013-09-17 10:30:00,
2013-09-17 05:35:00,49.1,47.7,30.30,East,81,0.0,4.0,95,0.00,,CLR,0.00,VWS V14.01,2013-09-17 10:35:00,
2013-09-17 05:40:00,49.1,47.7,30.30,East,80,0.0,3.0,95,0.00,,CLR,0.00,VWS V14.01,2013-09-17 10:40:00,
2013-09-17 05:45:00,49.1,47.7,30.30,ESE,121,3.0,4.0,95,0.00,,CLR,0.00,VWS V14.01,2013-09-17 10:45:00,
2013-09-17 05:50:00,49.2,47.8,30.29,ESE,103,1.0,6.0,95,0.00,,CLR,0.00,VWS V14.01,2013-09-17 10:50:00,
2013-09-17 05:55:00,49.2,47.8,30.30,East,82,0.0,6.0,95,0.00,,CLR,0.00,VWS V14.01,2013-09-17 10:55:00,
2013-09-17 06:00:00,49.2,47.8,30.29,ESE,102,2.0,4.0,95,0.00,,CLR,0.00,VWS V14.01,2013-09-17 11:00:00,
2013-09-17 06:05:00,49.2,47.8,30.29,East,87,1.0,4.0,95,0.00,,CLR,0.00,VWS V14.01,2013-09-17 11:05:00,
2013-09-17 06:10:00,49.2,47.8,30.30,East,86,0.0,1.0,95,0.00,,CLR,0.00,VWS V14.01,2013-09-17 11:10:00,
2013-09-17 06:15:00,49.2,47.8,30.29,East,84,0.0,3.0,95,0.00,,CLR,0.00,VWS V14.01,2013-09-17 11:15:00,
2013-09-17 06:20:00,49.2,47.8,30.29,East,82,2.0,4.0,95,0.00,,,0.00,VWS V14.01,2013-09-17 11:20:00,
2013-09-17 06:25:00,49.1,47.7,30.30,East,101,1.0,4.0,95,0.00,,,0.00,VWS V14.01,2013-09-17 11:25:00,
2013-09-17 06:30:00,49.2,47.8,30.30,East,98,0.0,4.0,95,0.00,,CLR,0.00,VWS V14.01,2013-09-17 11:30:00,
2013-09-17 06:31:00,49.2,47.8,30.29,ENE,75,0.0,4.0,95,0.00,,,0.00,VWS V14.01,2013-09-17 11:31:00,
2013-09-17 06:36:00,49.2,47.8,30.30,East,91,0.0,4.0,95,0.00,,,0.00,VWS V14.01,2013-09-17 11:36:00,
2013-09-17 06:40:00,49.2,47.8,30.30,East,91,3.0,4.0,95,0.00,,CLR,0.00,VWS V14.01,2013-09-17 11:40:00,
2013-09-17 06:41:00,49.3,47.9,30.30,East,89,2.0,4.0,95,0.00,,,0.00,VWS V14.01,2013-09-17 11:41:00,
2013-09-17 06:46:00,49.3,47.9,30.30,ESE,120,2.0,5.0,95,0.00,,,0.00,VWS V14.01,2013-09-17 11:46:00,
2013-09-17 06:50:00,49.3,47.9,30.30,East,94,1.0,5.0,95,0.00,,CLR,0.00,VWS V14.01,2013-09-17 11:50:00,
2013-09-17 06:51:00,49.3,47.9,30.30,SE,143,1.0,4.0,95,0.00,,,0.00,VWS V14.01,2013-09-17 11:51:00,
2013-09-17 06:56:00,49.3,47.9,30.30,East,79,0.0,4.0,95,0.00,,,0.00,VWS V14.01,2013-09-17 11:56:00,
2013-09-17 07:00:00,49.3,47.9,30.30,ESE,103,1.0,4.0,95,0.00,,CLR,0.00,VWS V14.01,2013-09-17 12:00:00,
2013-09-17 07:01:00,49.3,47.9,30.30,East,86,0.0,3.0,95,0.00,,,0.00,VWS V14.01,2013-09-17 12:01:00,
2013-09-17 07:06:00,49.3,47.9,30.30,SE,141,2.0,4.0,95,0.00,,,0.00,VWS V14.01,2013-09-17 12:06:00,
2013-09-17 07:10:00,49.4,48.0,30.30,SE,124,2.0,4.0,95,0.00,,CLR,0.00,VWS V14.01,2013-09-17 12:10:00,
2013-09-17 07:11:00,49.4,48.0,30.30,East,98,0.0,2.0,95,0.00,,,0.00,VWS V14.01,2013-09-17 12:11:00,
2013-09-17 07:16:00,49.4,48.0,30.30,ESE,105,0.0,5.0,95,0.00,,,0.00,VWS V14.01,2013-09-17 12:16:00,
2013-09-17 07:20:00,49.4,48.0,30.30,East,101,0.0,5.0,95,0.00,,CLR,0.00,VWS V14.01,2013-09-17 12:20:00,
2013-09-17 07:21:00,49.5,48.1,30.30,ESE,104,2.0,3.0,95,0.00,,,0.00,VWS V14.01,2013-09-17 12:21:00,
2013-09-17 07:26:00,49.6,48.2,30.30,SSE,159,2.0,4.0,95,0.00,,,0.00,VWS V14.01,2013-09-17 12:26:00,
2013-09-17 07:30:00,49.6,48.2,30.30,East,86,3.0,4.0,95,0.00,,CLR,0.00,VWS V14.01,2013-09-17 12:30:00,
2013-09-17 07:31:00,49.8,48.4,30.30,East,85,2.0,4.0,95,0.00,,,0.00,VWS V14.01,2013-09-17 12:31:00,
2013-09-17 07:36:00,50.0,48.6,30.30,ESE,122,2.0,4.0,95,0.00,,,0.00,VWS V14.01,2013-09-17 12:36:00,
2013-09-17 07:40:00,50.1,48.7,30.30,NE,37,1.0,4.0,95,0.00,,CLR,0.00,VWS V14.01,2013-09-17 12:40:00,
2013-09-17 07:41:00,50.3,48.9,30.30,East,101,2.0,3.0,95,0.00,,,0.00,VWS V14.01,2013-09-17 12:41:00,
2013-09-17 07:46:00,50.8,49.4,30.30,East,91,1.0,4.0,95,0.00,,,0.00,VWS V14.01,2013-09-17 12:46:00,
2013-09-17 07:50:00,50.9,49.5,30.30,SE,144,3.0,4.0,95,0.00,,CLR,0.00,VWS V14.01,2013-09-17 12:50:00,
2013-09-17 07:52:00,51.2,49.5,30.30,ESE,117,4.0,5.0,94,0.00,,,0.00,VWS V14.01,2013-09-17 12:52:00,
2013-09-17 07:57:00,51.5,49.8,30.30,South,170,3.0,5.0,94,0.00,,,0.00,VWS V14.01,2013-09-17 12:57:00,
2013-09-17 08:00:00,51.6,49.7,30.30,South,186,3.0,8.0,93,0.00,,CLR,0.00,VWS V14.01,2013-09-17 13:00:00,
2013-09-17 08:02:00,51.6,49.7,30.30,SE,144,1.0,6.0,93,0.00,,,0.00,VWS V14.01,2013-09-17 13:02:00,
2013-09-17 08:07:00,51.8,49.8,30.30,SE,135,2.0,6.0,93,0.00,,,0.00,VWS V14.01,2013-09-17 13:07:00,
2013-09-17 08:10:00,51.8,49.8,30.30,ESE,120,3.0,6.0,93,0.00,,CLR,0.00,VWS V14.01,2013-09-17 13:10:00,
2013-09-17 08:12:00,52.0,49.8,30.30,ESE,108,2.0,8.0,92,0.00,,,0.00,VWS V14.01,2013-09-17 13:12:00,
2013-09-17 08:17:00,52.5,50.2,30.30,ESE,102,2.0,8.0,92,0.00,,,0.00,VWS V14.01,2013-09-17 13:17:00,
2013-09-17 08:20:00,52.5,50.2,30.30,ESE,103,4.0,8.0,92,0.00,,CLR,0.00,VWS V14.01,2013-09-17 13:20:00,
2013-09-17 08:22:00,53.1,50.8,30.30,SSE,148,3.0,4.0,92,0.00,,,0.00,VWS V14.01,2013-09-17 13:22:00,
2013-09-17 08:27:00,53.5,50.9,30.30,SSE,162,3.0,4.0,91,0.00,,,0.00,VWS V14.01,2013-09-17 13:27:00,
2013-09-17 08:30:00,53.5,50.9,30.30,ESE,120,2.0,4.0,91,0.00,,CLR,0.00,VWS V14.01,2013-09-17 13:30:00,
2013-09-17 08:32:00,53.7,50.8,30.30,South,170,2.0,4.0,90,0.00,,,0.00,VWS V14.01,2013-09-17 13:32:00,
2013-09-17 08:37:00,54.3,51.4,30.30,ESE,115,3.0,4.0,90,0.00,,,0.00,VWS V14.01,2013-09-17 13:37:00,
2013-09-17 08:40:00,54.3,51.4,30.30,ESE,103,1.0,4.0,90,0.00,,CLR,0.00,VWS V14.01,2013-09-17 13:40:00,
2013-09-17 08:42:00,55.0,51.8,30.30,SE,129,4.0,8.0,89,0.00,,OVC035,0.00,VWS V14.01,2013-09-17 13:42:00,
2013-09-17 08:47:00,55.3,51.8,30.30,ESE,117,4.0,8.0,88,0.00,,OVC035,0.00,VWS V14.01,2013-09-17 13:47:00,
2013-09-17 08:50:00,55.4,51.9,30.30,SSE,167,2.0,8.0,88,0.00,,CLR,0.00,VWS V14.01,2013-09-17 13:50:00,
2013-09-17 08:52:00,56.0,52.5,30.30,SE,132,5.0,6.0,88,0.00,,OVC035,0.00,VWS V14.01,2013-09-17 13:52:00,
2013-09-17 08:57:00,56.7,52.6,30.30,SSW,212,3.0,6.0,86,0.00,,OVC035,0.00,VWS V14.01,2013-09-17 13:57:00,
2013-09-17 09:00:00,56.8,52.7,30.30,ESE,113,4.0,7.0,86,0.00,,CLR,0.00,VWS V14.01,2013-09-17 14:00:00,
2013-09-17 09:02:00,57.3,52.8,30.30,SSE,152,6.0,6.0,85,0.00,,OVC035,0.00,VWS V14.01,2013-09-17 14:02:00,
2013-09-17 09:07:00,57.7,52.9,30.30,East,91,3.0,7.0,84,0.00,,OVC035,0.00,VWS V14.01,2013-09-17 14:07:00,
2013-09-17 09:10:00,57.7,52.9,30.30,ESE,105,5.0,7.0,84,0.00,,CLR,0.00,VWS V14.01,2013-09-17 14:10:00,
2013-09-17 09:13:00,57.6,52.8,30.30,East,98,5.0,5.0,84,0.00,,OVC035,0.00,VWS V14.01,2013-09-17 14:13:00,
2013-09-17 09:18:00,57.5,52.7,30.30,ESE,115,2.0,5.0,84,0.00,,OVC035,0.00,VWS V14.01,2013-09-17 14:18:00,
2013-09-17 09:20:00,57.5,52.7,30.30,ESE,107,8.0,8.0,84,0.00,,CLR,0.00,VWS V14.01,2013-09-17 14:20:00,
2013-09-17 09:23:00,57.5,53.0,30.30,SSE,162,1.0,8.0,85,0.00,,OVC037,0.00,VWS V14.01,2013-09-17 14:23:00,
2013-09-17 09:28:00,58.0,53.2,30.30,SE,129,1.0,8.0,84,0.00,,OVC037,0.00,VWS V14.01,2013-09-17 14:28:00,
2013-09-17 09:30:00,58.0,53.2,30.30,SE,129,1.0,8.0,84,0.00,,CLR,0.00,VWS V14.01,2013-09-17 14:30:00,
2013-09-17 09:33:00,58.7,53.9,30.30,ESE,111,4.0,7.0,84,0.00,,OVC037,0.00,VWS V14.01,2013-09-17 14:33:00,
2013-09-17 09:38:00,59.1,54.0,30.30,East,83,1.0,1.0,83,0.00,,OVC037,0.00,VWS V14.01,2013-09-17 14:38:00,
2013-09-17 09:40:00,59.1,54.0,30.30,SSE,165,1.0,7.0,83,0.00,,CLR,0.00,VWS V14.01,2013-09-17 14:40:00,
2013-09-17 09:43:00,59.1,53.6,30.30,SSE,162,2.0,9.0,82,0.00,,BKN037,0.00,VWS V14.01,2013-09-17 14:43:00,
2013-09-17 09:48:00,59.5,54.0,30.30,ESE,118,3.0,5.0,82,0.00,,BKN037,0.00,VWS V14.01,2013-09-17 14:48:00,
2013-09-17 09:50:00,59.5,54.0,30.30,SE,129,3.0,9.0,82,0.00,,CLR,0.00,VWS V14.01,2013-09-17 14:50:00,
2013-09-17 09:53:00,59.7,53.9,30.30,SSE,166,1.0,8.0,81,0.00,,BKN037,0.00,VWS V14.01,2013-09-17 14:53:00,
2013-09-17 09:58:00,59.8,54.3,30.29,SE,136,0.0,1.0,82,0.00,,BKN037,0.00,VWS V14.01,2013-09-17 14:58:00,
2013-09-17 10:00:00,59.7,54.2,30.29,SE,134,1.0,8.0,82,0.00,,CLR,0.00,VWS V14.01,2013-09-17 15:00:00,
2013-09-17 10:03:00,59.9,54.4,30.30,SSW,198,1.0,4.0,82,0.00,,SCT037,0.00,VWS V14.01,2013-09-17 15:03:00,
2013-09-17 10:08:00,60.0,54.5,30.29,ESE,108,2.0,3.0,82,0.00,,SCT037,0.00,VWS V14.01,2013-09-17 15:08:00,
2013-09-17 10:10:00,60.0,54.5,30.29,SSE,160,1.0,4.0,82,0.00,,CLR,0.00,VWS V14.01,2013-09-17 15:10:00,
2013-09-17 10:13:00,60.2,54.7,30.29,South,187,1.0,4.0,82,0.00,,SCT037,0.00,VWS V14.01,2013-09-17 15:13:00,
2013-09-17 10:18:00,60.3,54.8,30.29,SSE,158,3.0,4.0,82,0.00,,SCT037,0.00,VWS V14.01,2013-09-17 15:18:00,
2013-09-17 10:20:00,60.3,54.8,30.29,ESE,111,2.0,4.0,82,0.00,,CLR,0.00,VWS V14.01,2013-09-17 15:20:00,
2013-09-17 10:23:00,60.4,54.9,30.29,SSE,156,1.0,4.0,82,0.00,,CLR,0.00,VWS V14.01,2013-09-17 15:23:00,
2013-09-17 10:28:00,60.4,54.9,30.29,SSW,198,2.0,4.0,82,0.00,,CLR,0.00,VWS V14.01,2013-09-17 15:28:00,
2013-09-17 10:30:00,60.4,54.9,30.29,ESE,111,1.0,6.0,82,0.00,,CLR,0.00,VWS V14.01,2013-09-17 15:30:00,
2013-09-17 10:33:00,60.4,54.9,30.29,ESE,107,2.0,5.0,82,0.00,,CLR,0.00,VWS V14.01,2013-09-17 15:33:00,
2013-09-17 10:38:00,60.5,55.0,30.29,East,91,2.0,5.0,82,0.00,,CLR,0.00,VWS V14.01,2013-09-17 15:38:00,
2013-09-17 10:40:00,60.5,55.0,30.29,SE,135,3.0,6.0,82,0.00,,CLR,0.00,VWS V14.01,2013-09-17 15:40:00,
2013-09-17 10:44:00,60.8,55.3,30.29,ESE,117,2.0,5.0,82,0.00,,CLR,0.00,VWS V14.01,2013-09-17 15:44:00,
2013-09-17 10:49:00,61.3,55.8,30.29,SE,145,3.0,4.0,82,0.00,,CLR,0.00,VWS V14.01,2013-09-17 15:49:00,
2013-09-17 10:50:00,61.2,55.7,30.29,SSW,208,1.0,5.0,82,0.00,,CLR,0.00,VWS V14.01,2013-09-17 15:50:00,
2013-09-17 10:54:00,62.1,55.9,30.29,SE,136,3.0,5.0,80,0.00,,CLR,0.00,VWS V14.01,2013-09-17 15:54:00,
2013-09-17 10:59:00,62.7,56.8,30.29,SSE,148,1.0,2.0,81,0.00,,CLR,0.00,VWS V14.01,2013-09-17 15:59:00,
2013-09-17 11:00:00,62.5,56.6,30.29,East,85,1.0,6.0,81,0.00,,CLR,0.00,VWS V14.01,2013-09-17 16:00:00,
2013-09-17 11:04:00,63.4,56.8,30.29,East,93,0.0,3.0,79,0.00,,BKN040,0.00,VWS V14.01,2013-09-17 16:04:00,
2013-09-17 11:09:00,64.1,57.1,30.29,South,173,0.0,3.0,78,0.00,,BKN040,0.00,VWS V14.01,2013-09-17 16:09:00,
2013-09-17 11:10:00,64.0,57.4,30.29,SSW,203,2.0,3.0,79,0.00,,CLR,0.00,VWS V14.01,2013-09-17 16:10:00,
2013-09-17 11:14:00,64.4,57.0,30.28,East,101,3.0,5.0,77,0.00,,BKN040,0.00,VWS V14.01,2013-09-17 16:14:00,
2013-09-17 11:19:00,64.6,57.2,30.28,SSE,150,3.0,3.0,77,0.00,,BKN040,0.00,VWS V14.01,2013-09-17 16:19:00,
2013-09-17 11:20:00,64.5,57.1,30.28,ESE,121,1.0,5.0,77,0.00,,CLR,0.00,VWS V14.01,2013-09-17 16:20:00,
2013-09-17 11:24:00,64.9,57.5,30.27,NNE,30,2.0,5.0,77,0.00,,OVC040,0.00,VWS V14.01,2013-09-17 16:24:00,
2013-09-17 11:29:00,65.4,57.7,30.27,East,94,2.0,3.0,76,0.00,,OVC040,0.00,VWS V14.01,2013-09-17 16:29:00,
2013-09-17 11:30:00,65.3,57.9,30.27,SSE,159,2.0,6.0,77,0.00,,CLR,0.00,VWS V14.01,2013-09-17 16:30:00,
2013-09-17 11:34:00,66.2,58.4,30.27,East,83,3.0,4.0,76,0.00,,OVC040,0.00,VWS V14.01,2013-09-17 16:34:00,
2013-09-17 11:39:00,67.1,58.5,30.27,South,173,3.0,4.0,74,0.00,,OVC040,0.00,VWS V14.01,2013-09-17 16:39:00,
2013-09-17 11:40:00,66.9,58.7,30.27,SSE,155,2.0,4.0,75,0.00,,CLR,0.00,VWS V14.01,2013-09-17 16:40:00,
2013-09-17 11:44:00,68.0,59.0,30.27,South,170,6.0,6.0,73,0.00,,BKN065,0.00,VWS V14.01,2013-09-17 16:44:00,
2013-09-17 11:49:00,68.6,58.0,30.27,SE,144,5.0,8.0,69,0.00,,BKN065,0.00,VWS V14.01,2013-09-17 16:49:00,
2013-09-17 11:50:00,68.6,58.4,30.27,SSE,158,6.0,10.0,70,0.00,,CLR,0.00,VWS V14.01,2013-09-17 16:50:00,
2013-09-17 11:54:00,68.9,59.1,30.26,SE,129,2.0,8.0,71,0.00,,BKN065,0.00,VWS V14.01,2013-09-17 16:54:00,
2013-09-17 11:59:00,69.7,59.1,30.26,East,100,6.0,7.0,69,0.00,,BKN065,0.00,VWS V14.01,2013-09-17 16:59:00,
2013-09-17 12:00:00,69.4,58.8,30.26,South,170,2.0,8.0,69,0.00,,CLR,0.00,VWS V14.01,2013-09-17 17:00:00,
2013-09-17 12:04:00,69.9,58.5,30.26,SE,134,3.0,8.0,67,0.00,,SCT065,0.00,VWS V14.01,2013-09-17 17:04:00,
2013-09-17 12:09:00,70.3,58.8,30.26,ESE,117,8.0,8.0,67,0.00,,SCT065,0.00,VWS V14.01,2013-09-17 17:09:00,
2013-09-17 12:10:00,70.0,58.5,30.26,ENE,78,2.0,8.0,67,0.00,,CLR,0.00,VWS V14.01,2013-09-17 17:10:00,
2013-09-17 12:15:00,70.8,58.9,30.26,ESE,120,3.0,8.0,66,0.00,,SCT065,0.00,VWS V14.01,2013-09-17 17:15:00,
2013-09-17 12:20:00,71.4,58.6,30.25,SSW,208,5.0,6.0,64,0.00,,SCT044,0.00,VWS V14.01,2013-09-17 17:20:00,
2013-09-17 12:25:00,71.4,58.6,30.26,SSE,165,1.0,6.0,64,0.00,,SCT044,0.00,VWS V14.01,2013-09-17 17:25:00,
2013-09-17 12:30:00,71.6,58.8,30.25,SSE,165,3.0,5.0,64,0.00,,SCT044,0.00,VWS V14.01,2013-09-17 17:30:00,
2013-09-17 12:35:00,71.2,58.4,30.25,SW,229,3.0,9.0,64,0.00,,SCT044,0.00,VWS V14.01,2013-09-17 17:35:00,
2013-09-17 12:40:00,71.0,58.7,30.25,SSW,211,1.0,3.0,65,0.00,,CLR,0.00,VWS V14.01,2013-09-17 17:40:00,
2013-09-17 12:45:00,71.1,58.3,30.25,WSW,255,2.0,6.0,64,0.00,,CLR,0.00,VWS V14.01,2013-09-17 17:45:00,
2013-09-17 12:50:00,71.3,59.4,30.25,South,173,3.0,4.0,66,0.00,,CLR,0.00,VWS V14.01,2013-09-17 17:50:00,
2013-09-17 12:55:00,72.0,59.2,30.25,SW,233,2.0,6.0,64,0.00,,CLR,0.00,VWS V14.01,2013-09-17 17:55:00,
2013-09-17 13:00:00,71.9,59.1,30.25,South,169,0.0,3.0,64,0.00,,CLR,0.00,VWS V14.01,2013-09-17 18:00:00,
2013-09-17 13:05:00,71.3,58.5,30.25,SSE,155,2.0,9.0,64,0.00,,CLR,0.00,VWS V14.01,2013-09-17 18:05:00,
2013-09-17 13:10:00,71.1,58.3,30.25,SSW,193,2.0,9.0,64,0.00,,CLR,0.00,VWS V14.01,2013-09-17 18:10:00,
2013-09-17 13:11:00,71.1,58.8,30.24,SSE,160,3.0,6.0,65,0.00,,CLR,0.00,VWS V14.01,2013-09-17 18:11:00,
2013-09-17 13:16:00,71.3,58.1,30.24,South,179,3.0,6.0,63,0.00,,CLR,0.00,VWS V14.01,2013-09-17 18:16:00,
2013-09-17 13:20:00,71.4,59.0,30.24,ESE,120,2.0,6.0,65,0.00,,CLR,0.00,VWS V14.01,2013-09-17 18:20:00,
2013-09-17 13:21:00,71.5,58.3,30.24,SSE,165,9.0,11.0,63,0.00,,BKN095,0.00,VWS V14.01,2013-09-17 18:21:00,
2013-09-17 13:26:00,71.6,57.9,30.23,SE,141,6.0,11.0,62,0.00,,BKN095,0.00,VWS V14.01,2013-09-17 18:26:00,
2013-09-17 13:30:00,71.5,57.8,30.23,East,100,6.0,11.0,62,0.00,,CLR,0.00,VWS V14.01,2013-09-17 18:30:00,
2013-09-17 13:31:00,71.6,57.9,30.22,SE,141,1.0,6.0,62,0.00,,BKN095,0.00,VWS V14.01,2013-09-17 18:31:00,
2013-09-17 13:36:00,71.8,58.1,30.22,SW,221,2.0,8.0,62,0.00,,BKN095,0.00,VWS V14.01,2013-09-17 18:36:00,
2013-09-17 13:40:00,71.9,58.2,30.22,SSW,207,3.0,8.0,62,0.00,,CLR,0.00,VWS V14.01,2013-09-17 18:40:00,
2013-09-17 13:41:00,71.8,57.2,30.22,South,186,3.0,8.0,60,0.00,,SCT046,0.00,VWS V14.01,2013-09-17 18:41:00,
2013-09-17 13:47:00,71.8,58.5,30.22,SSE,165,2.0,8.0,63,0.00,,SCT046,0.00,VWS V14.01,2013-09-17 18:47:00,
2013-09-17 13:50:00,71.8,59.0,30.22,ESE,114,1.0,8.0,64,0.00,,CLR,0.00,VWS V14.01,2013-09-17 18:50:00,
2013-09-17 13:52:00,71.8,58.1,30.21,SSE,156,3.0,8.0,62,0.00,,SCT046,0.00,VWS V14.01,2013-09-17 18:52:00,
2013-09-17 13:57:00,71.6,58.8,30.21,West,260,1.0,9.0,64,0.00,,SCT046,0.00,VWS V14.01,2013-09-17 18:57:00,
2013-09-17 14:00:00,71.6,58.8,30.21,WSW,253,0.0,9.0,64,0.00,,CLR,0.00,VWS V14.01,2013-09-17 19:00:00,
2013-09-17 14:02:00,71.8,58.5,30.21,SW,214,1.0,5.0,63,0.00,,SCT046,0.00,VWS V14.01,2013-09-17 19:02:00,
2013-09-17 14:07:00,72.0,57.8,30.21,SSE,160,3.0,8.0,61,0.00,,SCT046,0.00,VWS V14.01,2013-09-17 19:07:00,
2013-09-17 14:10:00,71.9,57.7,30.21,SSE,163,9.0,9.0,61,0.00,,CLR,0.00,VWS V14.01,2013-09-17 19:10:00,
2013-09-17 14:12:00,71.8,58.1,30.20,West,260,0.0,9.0,62,0.00,,SCT046,0.00,VWS V14.01,2013-09-17 19:12:00,
2013-09-17 14:17:00,71.9,57.7,30.20,ESE,114,4.0,9.0,61,0.00,,SCT046,0.00,VWS V14.01,2013-09-17 19:17:00,
2013-09-17 14:20:00,72.0,58.7,30.20,ESE,109,5.0,9.0,63,0.00,,CLR,0.00,VWS V14.01,2013-09-17 19:20:00,
2013-09-17 14:22:00,72.6,58.8,30.20,SSE,159,5.0,5.0,62,0.00,,BKN040,0.00,VWS V14.01,2013-09-17 19:22:00,
2013-09-17 14:27:00,72.6,58.4,30.20,SSE,164,2.0,7.0,61,0.00,,BKN040,0.00,VWS V14.01,2013-09-17 19:27:00,
2013-09-17 14:30:00,72.6,58.4,30.20,SSW,195,3.0,7.0,61,0.00,,CLR,0.00,VWS V14.01,2013-09-17 19:30:00,
2013-09-17 14:32:00,72.4,58.2,30.20,South,176,4.0,7.0,61,0.00,,BKN040,0.00,VWS V14.01,2013-09-17 19:32:00,
2013-09-17 14:37:00,72.6,58.4,30.19,ESE,110,2.0,7.0,61,0.00,,BKN040,0.00,VWS V14.01,2013-09-17 19:37:00,
2013-09-17 14:40:00,72.7,58.5,30.19,East,101,2.0,7.0,61,0.00,,CLR,0.00,VWS V14.01,2013-09-17 19:40:00,
2013-09-17 14:42:00,73.3,58.6,30.19,SSE,156,4.0,8.0,60,0.00,,SCT042,0.00,VWS V14.01,2013-09-17 19:42:00,
2013-09-17 14:47:00,73.4,58.7,30.19,SSW,207,3.0,8.0,60,0.00,,SCT042,0.00,VWS V14.01,2013-09-17 19:47:00,
2013-09-17 14:50:00,73.5,57.8,30.19,ESE,120,4.0,8.0,58,0.00,,CLR,0.00,VWS V14.01,2013-09-17 19:50:00,
2013-09-17 14:52:00,73.5,57.8,30.19,West,260,2.0,6.0,58,0.00,,SCT042,0.00,VWS V14.01,2013-09-17 19:52:00,
2013-09-17 14:57:00,73.7,57.5,30.19,South,170,1.0,6.0,57,0.00,,SCT042,0.00,VWS V14.01,2013-09-17 19:57:00,
2013-09-17 15:00:00,73.7,58.0,30.19,SW,214,2.0,6.0,58,0.00,,CLR,0.00,VWS V14.01,2013-09-17 20:00:00,
2013-09-17 15:03:00,73.3,57.2,30.18,SSE,153,2.0,5.0,57,0.00,,SCT042,0.00,VWS V14.01,2013-09-17 20:03:00,
2013-09-17 15:08:00,73.3,56.7,30.18,SE,135,4.0,8.0,56,0.00,,SCT042,0.00,VWS V14.01,2013-09-17 20:08:00,
2013-09-17 15:10:00,73.3,56.7,30.18,SSW,194,2.0,8.0,56,0.00,,CLR,0.00,VWS V14.01,2013-09-17 20:10:00,
2013-09-17 15:13:00,73.4,56.8,30.18,SSE,148,3.0,5.0,56,0.00,,SCT042,0.00,VWS V14.01,2013-09-17 20:13:00,
2013-09-17 15:18:00,73.7,57.0,30.18,SE,138,0.0,5.0,56,0.00,,SCT042,0.00,VWS V14.01,2013-09-17 20:18:00,
2013-09-17 15:20:00,73.7,57.0,30.18,SE,138,0.0,5.0,56,0.00,,CLR,0.00,VWS V14.01,2013-09-17 20:20:00,
2013-09-17 15:23:00,73.5,57.3,30.18,SSE,160,2.0,8.0,57,0.00,,SCT046,0.00,VWS V14.01,2013-09-17 20:23:00,
2013-09-17 15:28:00,73.3,57.7,30.17,ESE,105,3.0,8.0,58,0.00,,SCT046,0.00,VWS V14.01,2013-09-17 20:28:00,
2013-09-17 15:30:00,73.3,57.7,30.17,ESE,105,3.0,8.0,58,0.00,,CLR,0.00,VWS V14.01,2013-09-17 20:30:00,
2013-09-17 15:33:00,73.3,57.2,30.17,South,176,1.0,8.0,57,0.00,,SCT046,0.00,VWS V14.01,2013-09-17 20:33:00,
2013-09-17 15:38:00,73.5,57.3,30.17,SE,134,3.0,5.0,57,0.00,,SCT046,0.00,VWS V14.01,2013-09-17 20:38:00,
2013-09-17 15:40:00,73.5,57.3,30.17,South,188,1.0,8.0,57,0.00,,CLR,0.00,VWS V14.01,2013-09-17 20:40:00,
2013-09-17 15:43:00,73.9,57.2,30.18,NNE,23,2.0,6.0,56,0.00,,SCT046,0.00,VWS V14.01,2013-09-17 20:43:00,
2013-09-17 15:48:00,73.8,57.1,30.17,SW,218,0.0,0.0,56,0.00,,SCT046,0.00,VWS V14.01,2013-09-17 20:48:00,
2013-09-17 15:50:00,73.8,57.1,30.17,SW,218,0.0,6.0,56,0.00,,CLR,0.00,VWS V14.01,2013-09-17 20:50:00,
2013-09-17 15:53:00,73.7,57.5,30.17,West,273,0.0,6.0,57,0.00,,SCT046,0.00,VWS V14.01,2013-09-17 20:53:00,
2013-09-17 15:58:00,73.7,57.0,30.17,SE,144,2.0,2.0,56,0.00,,SCT046,0.00,VWS V14.01,2013-09-17 20:58:00,
2013-09-17 16:00:00,73.7,56.5,30.17,SSE,156,1.0,7.0,55,0.00,,CLR,0.00,VWS V14.01,2013-09-17 21:00:00,
2013-09-17 16:03:00,73.6,57.4,30.16,South,174,5.0,5.0,57,0.00,,SCT046,0.00,VWS V14.01,2013-09-17 21:03:00,
2013-09-17 16:08:00,73.4,56.8,30.16,SW,227,1.0,2.0,56,0.00,,SCT046,0.00,VWS V14.01,2013-09-17 21:08:00,
2013-09-17 16:10:00,73.4,56.8,30.16,South,191,2.0,7.0,56,0.00,,CLR,0.00,VWS V14.01,2013-09-17 21:10:00,
2013-09-17 16:14:00,73.5,57.8,30.16,SE,144,3.0,6.0,58,0.00,,SCT046,0.00,VWS V14.01,2013-09-17 21:14:00,
2013-09-17 16:19:00,73.3,57.7,30.16,SSE,163,6.0,7.0,58,0.00,,SCT046,0.00,VWS V14.01,2013-09-17 21:19:00,
2013-09-17 16:20:00,73.4,57.7,30.16,South,169,5.0,6.0,58,0.00,,CLR,0.00,VWS V14.01,2013-09-17 21:20:00,
2013-09-17 16:24:00,73.0,57.4,30.16,SSE,168,1.0,7.0,58,0.00,,CLR,0.00,VWS V14.01,2013-09-17 21:24:00,
2013-09-17 16:29:00,72.8,57.7,30.16,SW,219,0.0,2.0,59,0.00,,CLR,0.00,VWS V14.01,2013-09-17 21:29:00,
2013-09-17 16:30:00,72.9,57.3,30.16,SE,128,2.0,7.0,58,0.00,,CLR,0.00,VWS V14.01,2013-09-17 21:30:00,
2013-09-17 16:34:00,72.8,57.7,30.16,ESE,118,3.0,3.0,59,0.00,,CLR,0.00,VWS V14.01,2013-09-17 21:34:00,
2013-09-17 16:39:00,72.9,57.8,30.16,South,169,0.0,3.0,59,0.00,,CLR,0.00,VWS V14.01,2013-09-17 21:39:00,
2013-09-17 16:40:00,72.8,57.2,30.16,SW,214,1.0,4.0,58,0.00,,CLR,0.00,VWS V14.01,2013-09-17 21:40:00,
2013-09-17 16:44:00,72.9,57.3,30.16,SSE,147,3.0,4.0,58,0.00,,CLR,0.00,VWS V14.01,2013-09-17 21:44:00,
2013-09-17 16:49:00,72.7,57.6,30.16,SSW,201,0.0,3.0,59,0.00,,CLR,0.00,VWS V14.01,2013-09-17 21:49:00,
2013-09-17 16:50:00,72.8,57.2,30.16,SE,134,3.0,5.0,58,0.00,,CLR,0.00,VWS V14.01,2013-09-17 21:50:00,
2013-09-17 16:54:00,72.7,57.6,30.16,SE,143,3.0,4.0,59,0.00,,CLR,0.00,VWS V14.01,2013-09-17 21:54:00,
2013-09-17 16:59:00,72.7,57.6,30.16,South,190,1.0,2.0,59,0.00,,CLR,0.00,VWS V14.01,2013-09-17 21:59:00,
2013-09-17 17:00:00,72.7,57.1,30.16,West,260,2.0,5.0,58,0.00,,CLR,0.00,VWS V14.01,2013-09-17 22:00:00,
2013-09-17 17:04:00,72.6,57.5,30.15,SSE,150,0.0,4.0,59,0.00,,CLR,0.00,VWS V14.01,2013-09-17 22:04:00,
2013-09-17 17:10:00,72.6,57.9,30.15,SE,139,1.0,3.0,60,0.00,,CLR,0.00,VWS V14.01,2013-09-17 22:10:00,
2013-09-17 17:15:00,72.3,57.2,30.15,SSE,167,1.0,5.0,59,0.00,,CLR,0.00,VWS V14.01,2013-09-17 22:15:00,
2013-09-17 17:20:00,72.1,57.5,30.15,ESE,118,2.0,3.0,60,0.00,,SCT110,0.00,VWS V14.01,2013-09-17 22:20:00,
2013-09-17 17:25:00,72.0,57.4,30.15,South,186,0.0,6.0,60,0.00,,SCT110,0.00,VWS V14.01,2013-09-17 22:25:00,
2013-09-17 17:30:00,72.0,57.4,30.15,WSW,239,3.0,5.0,60,0.00,,SCT110,0.00,VWS V14.01,2013-09-17 22:30:00,
2013-09-17 17:35:00,71.8,57.6,30.15,SSE,166,1.0,5.0,61,0.00,,SCT110,0.00,VWS V14.01,2013-09-17 22:35:00,
2013-09-17 17:40:00,71.7,57.5,30.15,SSE,155,1.0,3.0,61,0.00,,SCT110,0.00,VWS V14.01,2013-09-17 22:40:00,
2013-09-17 17:45:00,71.7,57.5,30.15,SE,146,0.0,4.0,61,0.00,,SCT110,0.00,VWS V14.01,2013-09-17 22:45:00,
2013-09-17 17:50:00,71.6,57.5,30.15,SW,224,1.0,4.0,61,0.00,,CLR,0.00,VWS V14.01,2013-09-17 22:50:00,
2013-09-17 17:51:00,71.6,57.5,30.15,SSW,203,2.0,3.0,61,0.00,,SCT110,0.00,VWS V14.01,2013-09-17 22:51:00,
2013-09-17 17:56:00,71.5,58.3,30.15,SSE,157,0.0,3.0,63,0.00,,SCT110,0.00,VWS V14.01,2013-09-17 22:56:00,
2013-09-17 18:00:00,71.4,57.7,30.15,SSE,150,0.0,3.0,62,0.00,,CLR,0.00,VWS V14.01,2013-09-17 23:00:00,
2013-09-17 18:01:00,71.4,57.7,30.15,SSE,153,1.0,3.0,62,0.00,,SCT110,0.00,VWS V14.01,2013-09-17 23:01:00,
2013-09-17 18:06:00,71.2,57.5,30.15,SE,146,1.0,4.0,62,0.00,,SCT110,0.00,VWS V14.01,2013-09-17 23:06:00,
2013-09-17 18:10:00,71.1,57.9,30.15,SSE,148,1.0,4.0,63,0.00,,CLR,0.00,VWS V14.01,2013-09-17 23:10:00,
2013-09-17 18:11:00,71.0,57.8,30.14,SSW,203,1.0,3.0,63,0.00,,SCT110,0.00,VWS V14.01,2013-09-17 23:11:00,
2013-09-17 18:16:00,70.8,57.6,30.14,SSE,153,2.0,4.0,63,0.00,,SCT110,0.00,VWS V14.01,2013-09-17 23:16:00,
2013-09-17 18:20:00,70.7,57.5,30.14,SSE,148,1.0,4.0,63,0.00,,CLR,0.00,VWS V14.01,2013-09-17 23:20:00,
2013-09-17 18:21:00,70.6,57.4,30.14,SSE,162,1.0,4.0,63,0.00,,SCT110,0.00,VWS V14.01,2013-09-17 23:21:00,
2013-09-17 18:26:00,70.5,57.3,30.14,SE,131,2.0,4.0,63,0.00,,SCT110,0.00,VWS V14.01,2013-09-17 23:26:00,
2013-09-17 18:30:00,70.4,57.2,30.14,SSE,155,0.0,4.0,63,0.00,,CLR,0.00,VWS V14.01,2013-09-17 23:30:00,
2013-09-17 18:31:00,70.4,57.2,30.14,South,169,0.0,2.0,63,0.00,,SCT110,0.00,VWS V14.01,2013-09-17 23:31:00,
2013-09-17 18:36:00,70.3,57.6,30.14,SE,141,0.0,2.0,64,0.00,,SCT110,0.00,VWS V14.01,2013-09-17 23:36:00,
2013-09-17 18:40:00,70.2,57.5,30.14,SE,141,1.0,2.0,64,0.00,,CLR,0.00,VWS V14.01,2013-09-17 23:40:00,
2013-09-17 18:41:00,70.2,57.5,30.14,SSE,160,1.0,2.0,64,0.00,,SCT110,0.00,VWS V14.01,2013-09-17 23:41:00,
2013-09-17 18:47:00,70.0,57.7,30.14,SE,129,1.0,2.0,65,0.00,,SCT110,0.00,VWS V14.01,2013-09-17 23:47:00,
2013-09-17 18:50:00,70.0,57.3,30.14,SSE,159,1.0,2.0,64,0.00,,CLR,0.00,VWS V14.01,2013-09-17 23:50:00,
2013-09-17 18:52:00,69.8,57.5,30.13,SSE,150,0.0,2.0,65,0.00,,SCT110,0.00,VWS V14.01,2013-09-17 23:52:00,
2013-09-17 18:57:00,69.6,57.3,30.13,SE,145,1.0,2.0,65,0.00,,SCT110,0.00,VWS V14.01,2013-09-17 23:57:00,
2013-09-17 19:00:00,69.5,57.7,30.13,SW,217,2.0,2.0,66,0.00,,CLR,0.00,VWS V14.01,2013-09-18 00:00:00,
2013-09-17 19:02:00,69.4,57.6,30.13,ESE,107,2.0,3.0,66,0.00,,SCT110,0.00,VWS V14.01,2013-09-18 00:02:00,
2013-09-17 19:07:00,69.3,57.5,30.13,South,172,3.0,4.0,66,0.00,,SCT110,0.00,VWS V14.01,2013-09-18 00:07:00,
2013-09-17 19:10:00,69.3,57.0,30.13,SSE,165,1.0,4.0,65,0.00,,CLR,0.00,VWS V14.01,2013-09-18 00:10:00,
2013-09-17 19:12:00,69.2,57.4,30.13,SSW,198,3.0,4.0,66,0.00,,SCT110,0.00,VWS V14.01,2013-09-18 00:12:00,
2013-09-17 19:17:00,69.1,57.3,30.13,ESE,108,2.0,4.0,66,0.00,,SCT110,0.00,VWS V14.01,2013-09-18 00:17:00,
2013-09-17 19:20:00,69.1,57.3,30.13,ESE,111,1.0,4.0,66,0.00,,CLR,0.00,VWS V14.01,2013-09-18 00:20:00,
2013-09-17 19:22:00,69.0,57.2,30.13,SE,132,1.0,4.0,66,0.00,,SCT120,0.00,VWS V14.01,2013-09-18 00:22:00,
2013-09-17 19:27:00,69.0,57.2,30.13,ESE,118,2.0,4.0,66,0.00,,SCT120,0.00,VWS V14.01,2013-09-18 00:27:00,
2013-09-17 19:30:00,69.0,57.2,30.13,ESE,118,2.0,4.0,66,0.00,,CLR,0.00,VWS V14.01,2013-09-18 00:30:00,
2013-09-17 19:32:00,68.8,57.4,30.12,SE,146,1.0,4.0,67,0.00,,SCT120,0.00,VWS V14.01,2013-09-18 00:32:00,
2013-09-17 19:38:00,68.6,57.2,30.13,SSW,205,1.0,4.0,67,0.00,,SCT120,0.00,VWS V14.01,2013-09-18 00:38:00,
2013-09-17 19:40:00,68.6,57.2,30.13,SSW,205,1.0,4.0,67,0.00,,CLR,0.00,VWS V14.01,2013-09-18 00:40:00,
2013-09-17 19:43:00,68.5,57.1,30.12,SSE,165,1.0,3.0,67,0.00,,BKN120,0.00,VWS V14.01,2013-09-18 00:43:00,
2013-09-17 19:48:00,68.4,57.0,30.13,SSW,205,1.0,3.0,67,0.00,,BKN120,0.00,VWS V14.01,2013-09-18 00:48:00,
2013-09-17 19:50:00,68.4,57.0,30.13,SSW,205,1.0,3.0,67,0.00,,CLR,0.00,VWS V14.01,2013-09-18 00:50:00,
2013-09-17 19:53:00,68.4,57.0,30.13,SSE,150,1.0,2.0,67,0.00,,BKN120,0.00,VWS V14.01,2013-09-18 00:53:00,
2013-09-17 19:58:00,68.3,57.3,30.13,SE,138,2.0,2.0,68,0.00,,BKN120,0.00,VWS V14.01,2013-09-18 00:58:00,
2013-09-17 20:00:00,68.3,57.3,30.13,SE,138,2.0,2.0,68,0.00,,CLR,0.00,VWS V14.01,2013-09-18 01:00:00,
2013-09-17 20:03:00,68.1,57.6,30.13,SSE,150,0.0,2.0,69,0.00,,BKN120,0.00,VWS V14.01,2013-09-18 01:03:00,
2013-09-17 20:08:00,67.9,57.4,30.13,SSE,150,0.0,0.0,69,0.00,,BKN120,0.00,VWS V14.01,2013-09-18 01:08:00,
2013-09-17 20:10:00,68.0,57.5,30.13,SSE,150,0.0,2.0,69,0.00,,CLR,0.00,VWS V14.01,2013-09-18 01:10:00,
2013-09-17 20:13:00,67.7,57.2,30.13,SE,141,1.0,2.0,69,0.00,,BKN120,0.00,VWS V14.01,2013-09-18 01:13:00,
2013-09-17 20:18:00,67.5,57.4,30.13,SSW,200,3.0,3.0,70,0.00,,BKN120,0.00,VWS V14.01,2013-09-18 01:18:00,
2013-09-17 20:20:00,67.6,57.5,30.13,South,179,2.0,3.0,70,0.00,,CLR,0.00,VWS V14.01,2013-09-18 01:20:00,
2013-09-17 20:23:00,67.4,57.3,30.13,SSW,205,0.0,3.0,70,0.00,,BKN120,0.00,VWS V14.01,2013-09-18 01:23:00,
2013-09-17 20:28:00,67.2,57.5,30.13,South,169,1.0,2.0,71,0.00,,BKN120,0.00,VWS V14.01,2013-09-18 01:28:00,
2013-09-17 20:30:00,67.2,57.5,30.13,SE,142,1.0,3.0,71,0.00,,CLR,0.00,VWS V14.01,2013-09-18 01:30:00,
2013-09-17 20:34:00,67.1,57.4,30.13,SE,136,0.0,4.0,71,0.00,,BKN120,0.00,VWS V14.01,2013-09-18 01:34:00,
2013-09-17 20:39:00,67.0,57.3,30.13,South,169,1.0,1.0,71,0.00,,BKN120,0.00,VWS V14.01,2013-09-18 01:39:00,
2013-09-17 20:40:00,67.0,57.3,30.13,ESE,113,1.0,4.0,71,0.00,,CLR,0.00,VWS V14.01,2013-09-18 01:40:00,
2013-09-17 20:44:00,67.0,57.3,30.13,SE,134,1.0,2.0,71,0.00,,BKN120,0.00,VWS V14.01,2013-09-18 01:44:00,
2013-09-17 20:49:00,66.9,57.2,30.13,SSE,151,0.0,2.0,71,0.00,,BKN120,0.00,VWS V14.01,2013-09-18 01:49:00,
2013-09-17 20:50:00,66.9,57.2,30.13,SSE,156,0.0,2.0,71,0.00,,CLR,0.00,VWS V14.01,2013-09-18 01:50:00,
2013-09-17 20:54:00,66.8,57.1,30.13,SSE,153,0.0,2.0,71,0.00,,BKN120,0.00,VWS V14.01,2013-09-18 01:54:00,
2013-09-17 20:59:00,66.6,57.3,30.13,SSE,162,0.0,1.0,72,0.00,,BKN120,0.00,VWS V14.01,2013-09-18 01:59:00,
2013-09-17 21:00:00,66.7,57.0,30.13,SSE,160,0.0,2.0,71,0.00,,CLR,0.00,VWS V14.01,2013-09-18 02:00:00,
2013-09-17 21:04:00,66.5,57.2,30.13,South,176,1.0,2.0,72,0.00,,CLR,0.00,VWS V14.01,2013-09-18 02:04:00,
2013-09-17 21:10:00,66.5,57.2,30.13,SSW,208,3.0,3.0,72,0.00,,CLR,0.00,VWS V14.01,2013-09-18 02:10:00,
2013-09-17 21:15:00,66.4,57.1,30.13,South,172,1.0,3.0,72,0.00,,CLR,0.00,VWS V14.01,2013-09-18 02:15:00,
2013-09-17 21:20:00,66.4,57.1,30.13,SE,142,1.0,2.0,72,0.00,,CLR,0.00,VWS V14.01,2013-09-18 02:20:00,
2013-09-17 21:25:00,66.4,57.1,30.13,SSE,162,1.0,3.0,72,0.00,,CLR,0.00,VWS V14.01,2013-09-18 02:25:00,
2013-09-17 21:30:00,66.3,57.0,30.13,South,191,1.0,2.0,72,0.00,,CLR,0.00,VWS V14.01,2013-09-18 02:30:00,
2013-09-17 21:35:00,66.2,56.9,30.13,SE,146,1.0,2.0,72,0.00,,CLR,0.00,VWS V14.01,2013-09-18 02:35:00,
2013-09-17 21:40:00,66.2,57.3,30.13,ESE,107,1.0,3.0,73,0.00,,CLR,0.00,VWS V14.01,2013-09-18 02:40:00,
2013-09-17 21:46:00,66.1,56.8,30.13,SSE,156,1.0,5.0,72,0.00,,CLR,0.00,VWS V14.01,2013-09-18 02:46:00,
2013-09-17 21:50:00,66.1,56.8,30.13,SSE,168,1.0,6.0,72,0.00,,CLR,0.00,VWS V14.01,2013-09-18 02:50:00,
2013-09-17 21:51:00,66.1,56.8,30.13,South,172,0.0,5.0,72,0.00,,CLR,0.00,VWS V14.01,2013-09-18 02:51:00,
2013-09-17 21:56:00,66.0,56.7,30.13,South,169,1.0,5.0,72,0.00,,CLR,0.00,VWS V14.01,2013-09-18 02:56:00,
2013-09-17 22:00:00,66.0,56.7,30.13,South,177,0.0,5.0,72,0.00,,CLR,0.00,VWS V14.01,2013-09-18 03:00:00,
2013-09-17 22:01:00,66.0,56.7,30.13,South,187,2.0,3.0,72,0.00,,CLR,0.00,VWS V14.01,2013-09-18 03:01:00,
2013-09-17 22:06:00,65.9,57.0,30.12,South,187,2.0,4.0,73,0.00,,CLR,0.00,VWS V14.01,2013-09-18 03:06:00,
2013-09-17 22:10:00,65.8,56.9,30.12,SSE,158,2.0,4.0,73,0.00,,CLR,0.00,VWS V14.01,2013-09-18 03:10:00,
2013-09-17 22:11:00,65.8,56.9,30.12,South,169,2.0,4.0,73,0.00,,CLR,0.00,VWS V14.01,2013-09-18 03:11:00,
2013-09-17 22:17:00,65.6,56.7,30.12,South,169,3.0,4.0,73,0.00,,CLR,0.00,VWS V14.01,2013-09-18 03:17:00,
2013-09-17 22:20:00,65.6,56.7,30.12,SE,127,3.0,4.0,73,0.00,,OVC018,0.00,VWS V14.01,2013-09-18 03:20:00,
2013-09-17 22:22:00,65.7,56.8,30.12,ESE,111,1.0,5.0,73,0.00,,CLR,0.00,VWS V14.01,2013-09-18 03:22:00,
2013-09-17 22:28:00,65.7,56.4,30.13,SE,129,3.0,5.0,72,0.00,,CLR,0.00,VWS V14.01,2013-09-18 03:28:00,
2013-09-17 22:30:00,65.7,56.4,30.13,SSE,153,2.0,5.0,72,0.00,,CLR,0.00,VWS V14.01,2013-09-18 03:30:00,
2013-09-17 22:33:00,65.8,56.5,30.12,SSE,159,1.0,6.0,72,0.00,,CLR,0.00,VWS V14.01,2013-09-18 03:33:00,
2013-09-17 22:38:00,65.7,56.4,30.13,SSE,162,1.0,6.0,72,0.00,,CLR,0.00,VWS V14.01,2013-09-18 03:38:00,
2013-09-17 22:40:00,65.7,56.4,30.13,SSE,162,1.0,6.0,72,0.00,,CLR,0.00,VWS V14.01,2013-09-18 03:40:00,
2013-09-17 22:43:00,65.7,56.4,30.12,SSE,154,1.0,3.0,72,0.00,,CLR,0.00,VWS V14.01,2013-09-18 03:43:00,
2013-09-17 22:48:00,65.6,56.7,30.12,SSE,151,2.0,5.0,73,0.00,,CLR,0.00,VWS V14.01,2013-09-18 03:48:00,
2013-09-17 22:50:00,65.6,56.7,30.12,SSE,151,2.0,5.0,73,0.00,,CLR,0.00,VWS V14.01,2013-09-18 03:50:00,
2013-09-17 22:53:00,65.5,56.6,30.12,SSW,195,2.0,4.0,73,0.00,,CLR,0.00,VWS V14.01,2013-09-18 03:53:00,
2013-09-17 22:58:00,65.4,56.5,30.12,South,191,1.0,1.0,73,0.00,,CLR,0.00,VWS V14.01,2013-09-18 03:58:00,
2013-09-17 23:00:00,65.4,56.5,30.12,SE,141,1.0,5.0,73,0.00,,CLR,0.00,VWS V14.01,2013-09-18 04:00:00,
2013-09-17 23:01:00,65.2,56.3,30.12,SE,146,3.0,3.0,73,0.00,,BKN050,0.00,VWS V14.01,2013-09-18 04:01:00,
2013-09-17 23:02:00,65.2,56.3,30.12,SSW,197,1.0,3.0,73,0.00,,BKN050,0.00,VWS V14.01,2013-09-18 04:02:00,
2013-09-17 23:03:00,65.2,56.3,30.12,SSE,163,1.0,3.0,73,0.00,,BKN050,0.00,VWS V14.01,2013-09-18 04:03:00,
2013-09-17 23:05:00,65.1,56.2,30.12,SSE,160,0.0,3.0,73,0.00,,BKN050,0.00,VWS V14.01,2013-09-18 04:05:00,
2013-09-17 23:10:00,65.0,56.5,30.12,SSW,210,3.0,4.0,74,0.00,,BKN050,0.00,VWS V14.01,2013-09-18 04:10:00,
2013-09-17 23:15:00,64.8,56.3,30.12,SE,141,3.0,6.0,74,0.00,,BKN050,0.00,VWS V14.01,2013-09-18 04:15:00,
2013-09-17 23:20:00,64.6,56.1,30.11,ESE,117,2.0,3.0,74,0.00,,OVC050,0.00,VWS V14.01,2013-09-18 04:20:00,
2013-09-17 23:25:00,64.5,56.0,30.11,SSE,160,2.0,4.0,74,0.00,,OVC050,0.00,VWS V14.01,2013-09-18 04:25:00,
2013-09-17 23:30:00,64.4,55.9,30.11,East,98,3.0,4.0,74,0.00,,OVC050,0.00,VWS V14.01,2013-09-18 04:30:00,
2013-09-17 23:35:00,64.3,55.8,30.11,SSE,150,4.0,4.0,74,0.00,,OVC050,0.00,VWS V14.01,2013-09-18 04:35:00,
2013-09-17 23:40:00,64.2,56.1,30.11,SSE,163,2.0,3.0,75,0.00,,SCT050,0.00,VWS V14.01,2013-09-18 04:40:00,
2013-09-17 23:45:00,64.1,56.0,30.11,SSW,198,2.0,7.0,75,0.00,,SCT050,0.00,VWS V14.01,2013-09-18 04:45:00,
2013-09-17 23:50:00,64.1,56.0,30.11,South,170,3.0,4.0,75,0.00,,SCT050,0.00,VWS V14.01,2013-09-18 04:50:00,
2013-09-17 23:55:00,64.2,56.1,30.11,South,181,2.0,5.0,75,0.00,,SCT050,0.00,VWS V14.01,2013-09-18 04:55:00,